Location: Unspecified
(48.2082°N, 0.0000°E)
Time: 04:54:29
(UTC+00:00)

Tiros 1 despin weight - Pass Details

Date: 20 June 2019
Orbit: 594 x 642 km, 48.2° (Epoch: 17 August)

Event Time Altitude Azimuth Distance (km) Brightness Sun altitude
Rises 23:27:00 0° 216° (SW) 2,840 - -17.9°
Reaches altitude 10° 23:29:32 10° 205° (SSW) 1,933 - -18.0°
Maximum altitude 23:33:18 28° 147° (SSE) 1,131 - -18.1°
Exits shadow 23:34:21 25° 122° (ESE) 1,212 ? -18.1°
Drops below altitude 10° 23:37:04 10° 88° (E) 1,929 ? -18.1°
Sets 23:39:35 0° 77° (ENE) 2,832 ? -18.2°
